[TLELIST] Archives

 

Current TLEs <27 DECEMBER 2004>

December 27th 2004 PST

HST 1 20580U 90037B 04361.22250346 .00000799 00000-0 50451-4 0 2359 2 20580 28.4685 315.6155 0003866 231.2531 128.7708 14.99507074604252 ISS 1 25544U 98067A 04362.48028935 .00024113 00000-0 18535-3 0 4557 2 25544 51.6399 58.9525 0003850 141.7060 54.7186 15.71893193348681 CHANDRA 1 25867U 99040B 04356.66666667 +.00000000 +00000-0 +00000-0 0 07344 2 25867 055.6902 106.8246 5676980 302.9306 356.0147 00.37803732001211 These 2-Line Elements (TLEs) are from US Space Command courtesy TS Kelso's Celestial BB ...Continue Reading

Current TLEs <22 DECEMBER 2004>

December 22nd 2004 PST

HST 1 20580U 90037B 04357.36214735 .00000877 00000-0 56610-4 0 2339 2 20580 28.4692 340.7535 0003810 190.1448 169.9044 14.99502593603676 ISS 1 25544U 98067A 04357.82824074 .00018571 00000-0 14537-3 0 4220 2 25544 51.6383 82.7600 0004193 127.9090 7.5902 15.71650164347953 CHANDRA 1 25867U 99040B 04356.66666667 +.00000000 +00000-0 +00000-0 0 07344 2 25867 055.6902 106.8246 5676980 302.9306 356.0147 00.37803732001211 These 2-Line Elements (TLEs) are from US Space Command courtesy TS Kelso's Celestial BB ...Continue Reading

Current TLEs <20 DECEMBER 2004>

December 20th 2004 PST

HST 1 20580U 90037B 04355.43196654 .00000901 00000-0 58525-4 0 2328 2 20580 28.4690 353.3217 0003813 169.0329 191.0372 14.99499867603384 ISS 1 25544U 98067A 04355.85069564 .00020916 00000-0 16356-3 0 4087 2 25544 51.6385 92.8798 0004138 123.3875 336.0340 15.71582104347645 CHANDRA 1 25867U 99040B 04354.04166667 +.00000000 +00000-0 +00000-0 0 07338 2 25867 055.6457 106.9067 5677504 302.9112 358.7301 00.37799837001217 These 2-Line Elements (TLEs) are from US Space Command courtesy TS Kelso's Celestial BB ...Continue Reading

Current TLEs <17 DECEMBER 2004>

December 18th 2004 PST

HST 1 20580U 90037B 04353.16898927 .00000962 00000-0 63386-4 0 2304 2 20580 28.4698 8.0579 0003737 147.8915 212.1928 14.99496751603041 ISS 1 25544U 98067A 04353.69820947 .00019991 00000-0 15717-3 0 3919 2 25544 51.6378 103.8920 0004423 117.5178 35.9481 15.71486299347307 CHANDRA 1 25867U 99040B 04351.33333333 +.00000000 +00000-0 +00000-0 0 07322 2 25867 055.6280 106.9611 5673575 302.9600 350.0309 00.37786181001213 These 2-Line Elements (TLEs) are from US Space Command courtesy TS Kelso's Celestial BB ...Continue Reading

Current TLEs <15 DECEMBER 2004>

December 15th 2004 PST

HST 1 20580U 90037B 04350.37353801 .00001155 00000-0 78813-4 0 2284 2 20580 28.4695 26.2609 0003667 121.0148 239.0823 14.99493275602621 ISS 1 25544U 98067A 04350.96168981 .00017890 00000-0 14184-3 0 3710 2 25544 51.6380 117.8915 0004467 112.7662 29.3969 15.71374485346874 CHANDRA 1 25867U 99040B 04348.70833333 +.00000000 +00000-0 +00000-0 0 07313 2 25867 055.6182 106.9610 5674341 303.1066 352.5872 00.37780838001219 These 2-Line Elements (TLEs) are from US Space Command courtesy TS Kelso's Celestial BB ...Continue Reading

Current TLEs <10 DECEMBER 2004>

December 11th 2004 PST

HST 1 20580U 90037B 04346.44658031 .00001016 00000-0 67757-4 0 2258 2 20580 28.4676 51.8322 0003687 78.9592 281.1410 14.99486028602034 ISS 1 25544U 98067A 04346.68229167 .00015842 00000-0 12698-3 0 3429 2 25544 51.6373 139.7764 0004461 101.0435 297.7163 15.71219319346202 CHANDRA 1 25867U 99040B 04346.08333333 +.00000000 +00000-0 +00000-0 0 07306 2 25867 055.5704 106.9778 5683252 303.2256 355.1439 00.37796366001217 These 2-Line Elements (TLEs) are from US Space Command courtesy TS Kelso's Celestial BB ...Continue Reading

Current TLEs <08 DECEMBER 2004>

December 8th 2004 PST

HST 1 20580U 90037B 04343.58454957 .00001106 00000-0 74934-4 0 2234 2 20580 28.4664 70.4838 0003875 45.9887 314.1020 14.99481853601607 ISS 1 25544U 98067A 04343.96479461 .00025628 00000-0 20287-3 0 3214 2 25544 51.6386 153.6774 0004057 90.6017 47.0392 15.71151487345774 CHANDRA 1 25867U 99040B 04343.91666667 +.00000000 +00000-0 +00000-0 0 07292 2 25867 055.5014 107.0549 5687974 303.2467 060.1222 00.37812024001211 These 2-Line Elements (TLEs) are from US Space Command courtesy TS Kelso's Celestial BB ...Continue Reading

Current TLEs <29 NOVEMBER 2004>

November 29th 2004 PST

HST 1 20580U 90037B 04334.66559191 .00001338 00000-0 93428-4 0 2178 2 20580 28.4666 128.5791 0003971 312.1526 47.8744 14.99464194600261 ISS 1 25544U 98067A 04334.94106481 .00030007 00000-0 23961-3 0 2534 2 25544 51.6385 199.8053 0004562 61.0794 128.3352 15.70846854344350 CHANDRA 1 25867U 99040B 04332.87500000 +.00000000 +00000-0 +00000-0 0 07259 2 25867 055.4095 107.2179 5704316 303.4954 356.8648 00.37798467001214 These 2-Line Elements (TLEs) are from US Space Command courtesy TS Kelso's Celestial BB ...Continue Reading

Current TLEs <27 NOVEMBER 2004>

November 27th 2004 PST

HST 1 20580U 90037B 04332.53567644 .00001215 00000-0 83601-4 0 2158 2 20580 28.4670 142.4531 0004037 288.3032 71.7134 14.99458598599945 ISS 1 25544U 98067A 04332.56901872 .00029665 00000-0 23840-3 0 2340 2 25544 51.6396 211.9275 0004434 53.3561 33.6100 15.70700073343987 CHANDRA 1 25867U 99040B 04330.25000000 +.00000000 +00000-0 +00000-0 0 07243 2 25867 055.3510 107.2877 5711897 303.4742 359.5826 00.37806356001212 These 2-Line Elements (TLEs) are from US Space Command courtesy TS Kelso's Celestial BB ...Continue Reading

Current TLEs <24 NOVEMBER 2004>

November 24th 2004 PST

HST 1 20580U 90037B 04329.54047290 .00001085 00000-0 73300-4 0 2133 2 20580 28.4687 161.9657 0003883 255.9716 104.0455 14.99451803599493 ISS 1 25544U 98067A 04329.89539215 .00023249 00000-0 18931-3 0 2156 2 25544 51.6417 225.5901 0004478 35.3806 44.1037 15.70534191343564 CHANDRA 1 25867U 99040B 04330.25000000 +.00000000 +00000-0 +00000-0 0 07243 2 25867 055.3510 107.2877 5711897 303.4742 359.5826 00.37806356001212 These 2-Line Elements (TLEs) are from US Space Command courtesy TS Kelso's Celestial BB ...Continue Reading
  • This mailing list is a public mailing list - anyone may join or leave, at any time.
  • This mailing list is announce-only.

International Space Station (ISS) / Hubble Space Telescope (HST) / Chandra X-Ray Observatory Orbital Data via EMAIL

Privacy Policy:

Private list